STARLINK-5744, 55601

Orbit data source: Space-Track

STARLINK-5744, 55601 is a payload satellite owned by SpaceX/Seattle (US) in LEO that was launched on Sun, 12 Feb 2023 UTC via an FALCON 9 launch vehicle from the Air Force Eastern Test Range (AFETR). Payload-class satellites include a variety of spacecraft equipped with specific instruments for various scientific and technological missions. These include communications satellites like Starlink; space stations such as the ISS; scientific satellites like the Hubble; Earth observation satellites from companies like Planet Labs, Umbra, and HawkEye 360; GPS; miniature CubeSats for education and research; and military/defense satellites.

Loading next visibility...
Identifier
55601, 2023-020AJ
Orbit
LEO
Country
Flag of USUS
Related business
Manufacturer
SpaceX/Seattle
Mission
Operational Commercial Communications
Bus & Motor
STARLINK, Unknown motor
Mass
305 kg wet, ~290 kg dry
Launch date (UTC)
2023-02-12 (3 years ago)
Launch vehicle
FALCON 9
Launch site
Air Force Eastern Test Range (AFETR)
Object type
Payload
Rocket body
Debris
Shape & HBR
Box + 1 Pan, 10.1 m
Radar Cross Section
13.562 m², Large (>1 m²)

Expand to show TLE details & history
Last TLE update: 18 hours ago

TLE from 18 hours ago
0 STARLINK-5744
1 55601U 23020AJ  25340.48149373  .00000321  00000-0  38837-4 0  9996
2 55601  43.0018 150.6537 0001403 265.7418  94.3264 15.02534679154902
Epoch: 2025-12-06T11:33Z
TLE epoch observation values (Epoch: 2025-12-06T11:33:21.058Z)
Latitude
-0.00001°
Longitude
-98.19266°
Altitude
558.935 km
Speed
7.584 km/s
True Right ascension
10h 02m 36s
True Declination
0° 00' 00"
Sunlit
Object was in daylight at epoch
Visualization orbit readout
Latitude
Unknown
Longitude
Unknown
Altitude
Unknown
Speed
Unknown
Apparent Right ascension
Unknown
Apparent Declination
Unknown
Sunlit
N/A
Visualization observer readout
Local Sidereal Time
03:09:01
Azimuth
Unknown
Elevation
Unknown
Doppler factor
Unknown
Orbital elements
Apogee altitude
561.981 km
Perigee altitude
560.034 km
Semi-major axis
6,939.144 km
Eccentricity
0.00014
Inclination
43.0018°
RAAN
150.6537°
Arg. of periapsis
265.7418°
True anomaly
94.34243°
Mean anomaly
94.3264°
Eccentric anomaly
94.33442°
Mean motion
3.75478 °/min
Orbital period
95.88 mins
BSTAR
0.000038837
Loading maneuver chart data...
Computing Atmospheric mass density...
Loading historical data...
Loading historical data...
Loading historical data...
Loading historical data...
Loading historical data...
Loading historical data...
Loading historical data...

Documentation

Showing up to 5 results
|